Weather Service Report


987 
ASUS41 KBTV 281930
RWRBTV
VERMONT REGIONAL WEATHER ROUNDUP
NATIONAL WEATHER SERVICE BURLINGTON VT
300 PM EDT FRI AUG 28 2015

NOTE: "FAIR" INDICATES FEW OR NO CLOUDS BELOW 12,000 FEET WITH NO 
SIGNIFICANT WEATHER AND/OR OBSTRUCTIONS TO VISIBILITY.

* THESE REPORTS ARE NOT UNDER NWS QUALITY CONTROL AND/OR DO NOT
  REPORT WEATHER SUCH AS PRECIPITATION AND FOG.

VTZ001>019-282000-
_____VERMONT_____

  
CITY           SKY/WX    TMP DP  RH WIND       PRES   REMARKS
BURLINGTON     MOSUNNY   78  54  43 N6        30.14F                  
MONTPELIER     MOSUNNY   70  52  52 VRB6      30.20F                  
MORRISVILLE    CLOUDY    73  52  47 CALM      30.16F                  
ST. JOHNSBURY*   N/A     73  52  47 MISG      30.13F                  
LYNDONVILLE*   PTSUNNY   71  53  52 SW8       30.18S                  
MIDDLEBURY*    FAIR      76  51  42 SW3       30.15F                  
RUTLAND*       MOSUNNY   72  50  46 W5        30.18F                  
SPRINGFIELD    PTSUNNY   75  50  41 NW7       30.15F                  
HIGHGATE*      PTSUNNY   73  56  53 E5        30.14F                  
NEWPORT*       PTSUNNY   71  55  58 NW3       30.15F                  
BENNINGTON     CLOUDY    74  54  49 N8        30.17F                  
SUTTON*          N/A     68 N/A N/A MISG        N/A                   
MT. MANSFIELD*   N/A     55 N/A N/A NW10        N/A                   

_____LAKE CHAMPLAIN_____

  
CITY           SKY/WX    TMP DP  RH WIND       PRES   REMARKS
COLCHESTER RF*   N/A     72  57  60 S3          N/A                   
DIAMOND ISL*     N/A     73  55  53 NE3         N/A                   

$$

NYZ007-026>031-035-052-083-282000-
_____NORTHERN NEW YORK_____

  
CITY           SKY/WX    TMP DP  RH WIND       PRES   REMARKS
PLATTSBURGH    SUNNY     72  58  61 SE7       30.13F                  
SARANAC LAKE   PTSUNNY   70  51  51 W7        30.17F                  
MASSENA        PTSUNNY   72  55  55 W9        30.15F                  
OGDENSBURG*    MOSUNNY   75  59  57 W6        30.15S                  
POTSDAM*       PTSUNNY   73  61  64 W8        30.15F                  
WATERTOWN      SUNNY     71  55  56 W15       30.19R                  
FT DRUM        MOSUNNY   73  54  51 W8        30.18R                  
ALBANY         PTSUNNY   75  52  44 VRB3      30.15F                  
GLENS FALLS    PTSUNNY   76  56  49 SE8       30.14F                  

$$
NHZ002-005-011-282000-
_____NEW HAMPSHIRE_____

  
CITY           SKY/WX    TMP DP  RH WIND       PRES   REMARKS
LEBANON        MOSUNNY   77  52  41 VRB5      30.13F                  
KEENE          PTSUNNY   75  54  46 W7        30.14F                  
MT WASHINGTON  PTSUNNY   50  46  87 W3          N/A  VSB 1/4          
PLYMOUTH       FAIR      75  54  46 W6        30.12F                  
WHITEFIELD     PTSUNNY   72  50  45 VRB3      30.15F                  

$$

_____REGIONAL QUEBEC LOCATIONS_____

  
CITY           SKY/WX    TMP DP  RH WIND       PRES   REMARKS
MONTREAL       PTSUNNY   72  57  60 W14       30.12                   
QUEBEC CITY    MOSUNNY   72  57  60 SW17G24   30.08F                  
SHERBROOKE     PTSUNNY   70  57  64 W7        30.13F                  

_____REGIONAL ONTARIO LOCATIONS_____

  
CITY           SKY/WX    TMP DP  RH WIND       PRES   REMARKS
OTTAWA         PTSUNNY   70  55  60 W8G17     30.15F                  

______KEY______
VSB  - VISIBILITY IN MILES
WCI  - WIND CHILL INDEX
HX   - HEAT INDEX
$$
NNNN

Return to Home page


Western Regional Climate Center, wrcc@dri.edu